Greensboro, GA

2:43 PM EST on December 03, 2016 (GMT -0500)
Greensboro

Weather History for K3J7 - June, 2014

Change the Weather History Date:

Wednesday, June 11, 2014

  Actual Average (KDBN) Record (KDBN)
Temperature  
Mean Temperature 74 °F -  
Max Temperature 86 °F 92 °F 100 °F (1963)
Min Temperature 62 °F 64 °F 52 °F (1977)
Cooling Degree Days 9    
Growing Degree Days 24 (Base 50)    
Moisture  
Dew Point 64 °F    
Average Humidity 79    
Maximum Humidity 100    
Minimum Humidity 45    
Precipitation  
Precipitation 0.00 in - - ()
Sea Level Pressure  
Sea Level Pressure 29.88 in    
Wind  
Wind Speed 4 mph (SSE)    
Max Wind Speed 10 mph    
Max Gust Speed 17 mph    
Visibility 9 miles    
Events Rain , Thunderstorm    
Averages and records for this station are not official NWS values.
T = Trace of Precipitation, MM = Missing Value Source: NWS Daily Summary

Daily Weather History Graph

Daily Weather History Graph

Search for Another Location

Airport or City:

Trip Planner

Search our weather history database for the weather conditions in past years. The results will help you decide how hot, cold, wet, or windy it might be!

Date:

Astronomy

Jun. 11, 2014 Rise Set
Actual Time 6:21 AM EDT 8:42 PM EDT
Civil Twilight 5:52 AM EDT 9:11 PM EDT
Nautical Twilight 5:17 AM EDT 9:47 PM EDT
Astronomical Twilight 4:38 AM EDT 10:25 PM EDT
Moon 7:15 PM EDT (6/11) 5:05 AM EDT (6/11)
Length of Visible Light 15h 18m
Length of Day
14h 20m
Waxing Gibbous, 97% of the Moon is Illuminated
Jun 11
Waxing Gibbous
Jun 13
Full
Jun 19
Last Quarter
Jun 27
New
Jul 5
First Quarter

Hourly Weather History & Observations

Time (EDT) Temp. Heat Index Dew Point Humidity Pressure Visibility Wind Dir Wind Speed Gust Speed Precip Events Conditions
12:15 AM 68.0 °F - 64.4 °F 88% 29.95 in 10.0 mi ESE 4.6 mph - N/A Rain , Thunderstorm Light Thunderstorms and Rain
12:35 AM 66.2 °F - 64.4 °F 94% 29.95 in 10.0 mi SE 4.6 mph - N/A Rain Light Rain
12:55 AM 66.2 °F - 64.4 °F 94% 29.96 in 10.0 mi ESE 9.2 mph - N/A   Scattered Clouds
1:15 AM 66.2 °F - 64.4 °F 94% 29.95 in 10.0 mi ESE 5.8 mph - N/A   Scattered Clouds
1:35 AM 66.2 °F - 64.4 °F 94% 29.95 in 10.0 mi ESE 6.9 mph - N/A   Scattered Clouds
1:55 AM 66.2 °F - 62.6 °F 88% 29.94 in 10.0 mi SE 3.5 mph - N/A   Clear
2:15 AM 66.2 °F - 62.6 °F 88% 29.94 in 10.0 mi SSE 3.5 mph - N/A   Clear
2:35 AM 66.2 °F - 62.6 °F 88% 29.93 in 10.0 mi Calm Calm - N/A   Scattered Clouds
2:55 AM 64.4 °F - 62.6 °F 94% 29.93 in 10.0 mi Calm Calm - N/A   Scattered Clouds
3:15 AM 64.4 °F - 62.6 °F 94% 29.90 in 7.0 mi Calm Calm - N/A   Clear
3:35 AM 64.4 °F - 62.6 °F 94% 29.89 in 10.0 mi Calm Calm - N/A   Clear
4:15 AM 64.4 °F - 62.6 °F 94% 29.90 in 7.0 mi Calm Calm - N/A   Clear
4:35 AM 62.6 °F - 62.6 °F 100% 29.90 in 5.0 mi Calm Calm - N/A   Clear
5:15 AM 62.6 °F - 62.6 °F 100% 29.90 in 10.0 mi Calm Calm - N/A   Clear
5:35 AM 62.6 °F - 62.6 °F 100% 29.90 in 10.0 mi ESE 4.6 mph - N/A   Clear
5:55 AM 62.6 °F - 62.6 °F 100% 29.90 in 7.0 mi SE 4.6 mph - N/A   Clear
6:15 AM 62.6 °F - 62.6 °F 100% 29.90 in 10.0 mi ESE 4.6 mph - N/A   Clear
6:35 AM 62.6 °F - 62.6 °F 100% 29.90 in 7.0 mi SE 5.8 mph - N/A   Clear
6:55 AM 62.6 °F - 62.6 °F 100% 29.91 in 7.0 mi SE 5.8 mph - N/A   Mostly Cloudy
7:15 AM 62.6 °F - 62.6 °F 100% 29.91 in 2.0 mi SE 6.9 mph - N/A   Overcast
7:35 AM 62.6 °F - 62.6 °F 100% 29.92 in 5.0 mi SE 6.9 mph - N/A   Overcast
7:55 AM 62.6 °F - 62.6 °F 100% 29.91 in 7.0 mi SSE 6.9 mph - N/A   Mostly Cloudy
8:15 AM 64.4 °F - 62.6 °F 94% 29.92 in 10.0 mi SSE 4.6 mph - N/A   Scattered Clouds
8:35 AM 64.4 °F - 62.6 °F 94% 29.93 in 10.0 mi Calm Calm - N/A   Mostly Cloudy
8:55 AM 64.4 °F - 62.6 °F 94% 29.93 in 10.0 mi South 4.6 mph - N/A   Overcast
9:15 AM 66.2 °F - 62.6 °F 88% 29.93 in 10.0 mi SSE 6.9 mph - N/A   Overcast
9:35 AM 66.2 °F - 64.4 °F 94% 29.94 in 7.0 mi South 4.6 mph - N/A   Overcast
9:55 AM 68.0 °F - 64.4 °F 88% 29.94 in 7.0 mi SSE 3.5 mph - N/A   Overcast
10:15 AM 68.0 °F - 64.4 °F 88% 29.93 in 7.0 mi SE 4.6 mph - N/A   Overcast
10:35 AM 69.8 °F - 64.4 °F 83% 29.93 in 7.0 mi Calm Calm - N/A   Scattered Clouds
11:15 AM 71.6 °F - 64.4 °F 78% 29.94 in 10.0 mi SSW 4.6 mph - N/A   Mostly Cloudy
11:35 AM 73.4 °F - 66.2 °F 78% 29.93 in 10.0 mi SE 5.8 mph - N/A   Mostly Cloudy
11:55 AM 73.4 °F - 64.4 °F 73% 29.93 in 10.0 mi Calm Calm - N/A   Scattered Clouds
12:15 PM 75.2 °F - 64.4 °F 69% 29.93 in 10.0 mi SSE 5.8 mph - N/A   Mostly Cloudy
12:35 PM 77.0 °F - 66.2 °F 69% 29.92 in 10.0 mi South 4.6 mph - N/A   Mostly Cloudy
12:55 PM 78.8 °F - 66.2 °F 65% 29.92 in 10.0 mi SE 6.9 mph - N/A   Mostly Cloudy
1:15 PM 77.0 °F - 64.4 °F 65% 29.91 in 10.0 mi SSE 4.6 mph - N/A   Mostly Cloudy
1:35 PM 78.8 °F - 68.0 °F 69% 29.90 in 10.0 mi SE 4.6 mph - N/A   Mostly Cloudy
1:55 PM 77.0 °F - 66.2 °F 69% 29.89 in 10.0 mi SE 4.6 mph - N/A   Mostly Cloudy
2:15 PM 80.6 °F 82.7 °F 66.2 °F 61% 29.87 in 10.0 mi Calm Calm - N/A   Mostly Cloudy
2:35 PM 78.8 °F - 64.4 °F 61% 29.86 in 10.0 mi Calm Calm - N/A   Mostly Cloudy
2:55 PM 80.6 °F 82.7 °F 66.2 °F 61% 29.85 in 10.0 mi WSW 5.8 mph - N/A   Mostly Cloudy
3:15 PM 84.2 °F 85.0 °F 62.6 °F 48% 29.85 in 10.0 mi Calm Calm - N/A   Scattered Clouds
3:35 PM 82.4 °F 83.4 °F 62.6 °F 51% 29.84 in 10.0 mi SW 6.9 mph - N/A   Mostly Cloudy
3:55 PM 82.4 °F 82.9 °F 60.8 °F 48% 29.84 in 10.0 mi Calm Calm - N/A   Mostly Cloudy
4:15 PM 82.4 °F 82.9 °F 60.8 °F 48% 29.83 in 10.0 mi South 6.9 mph - N/A   Scattered Clouds
4:35 PM 86.0 °F 86.6 °F 62.6 °F 45% 29.82 in 10.0 mi SSW 3.5 mph - N/A   Scattered Clouds
4:55 PM 82.4 °F 83.4 °F 62.6 °F 51% 29.82 in 10.0 mi South 6.9 mph - N/A   Mostly Cloudy
5:15 PM 82.4 °F 83.4 °F 62.6 °F 51% 29.82 in 10.0 mi South 4.6 mph - N/A   Mostly Cloudy
5:40 PM 84.2 °F 84.4 °F 60.8 °F 45% 29.81 in - South 5.8 mph - N/A   Unknown
5:55 PM 84.2 °F 84.4 °F 60.8 °F 45% 29.80 in 10.0 mi South 4.6 mph - N/A   Unknown
6:15 PM 84.2 °F 84.4 °F 60.8 °F 45% 29.80 in 10.0 mi South 5.8 mph - N/A   Scattered Clouds
6:35 PM 82.4 °F 83.4 °F 62.6 °F 51% 29.81 in 10.0 mi South 8.1 mph - N/A   Scattered Clouds
6:55 PM 80.6 °F 82.3 °F 64.4 °F 58% 29.82 in 10.0 mi SSE 5.8 mph - N/A   Scattered Clouds
7:15 PM 82.4 °F 84.6 °F 66.2 °F 58% 29.81 in 10.0 mi SSE 5.8 mph - N/A   Clear
7:35 PM 78.8 °F - 69.8 °F 74% 29.82 in 10.0 mi ESE 9.2 mph - N/A   Clear
7:55 PM 77.0 °F - 69.8 °F 78% 29.83 in 10.0 mi ESE 8.1 mph - N/A   Scattered Clouds
8:15 PM 75.2 °F - 68.0 °F 78% 29.83 in 10.0 mi ESE 8.1 mph 17.3 mph N/A   Clear
8:35 PM 73.4 °F - 66.2 °F 78% 29.83 in 10.0 mi ESE 8.1 mph - N/A   Scattered Clouds
8:55 PM 71.6 °F - 66.2 °F 83% 29.84 in 10.0 mi ESE 9.2 mph - N/A   Clear
9:15 PM 71.6 °F - 68.0 °F 88% 29.84 in 10.0 mi SE 10.4 mph - N/A   Scattered Clouds
9:35 PM 69.8 °F - 66.2 °F 88% 29.84 in 10.0 mi SE 9.2 mph - N/A   Scattered Clouds
9:55 PM 69.8 °F - 64.4 °F 83% 29.83 in 10.0 mi ESE 8.1 mph - N/A   Clear
10:15 PM 69.8 °F - 64.4 °F 83% 29.84 in 10.0 mi ESE 5.8 mph - N/A Thunderstorm Scattered Clouds
10:35 PM 68.0 °F - 64.4 °F 88% 29.85 in 10.0 mi ESE 5.8 mph - N/A   Scattered Clouds
10:55 PM 69.8 °F - 64.4 °F 83% 29.85 in 10.0 mi SSE 4.6 mph - N/A   Scattered Clouds
11:15 PM 69.8 °F - 64.4 °F 83% 29.88 in 10.0 mi South 5.8 mph - N/A Thunderstorm Thunderstorm
11:35 PM 66.2 °F - 64.4 °F 94% 29.88 in 2.5 mi Calm Calm - N/A Rain , Thunderstorm Heavy Thunderstorms and Rain